Ellsworth AFB, SD

11:02 AM MST on December 16, 2017 (GMT -0700)
Ellsworth Air Force Base

Weather History for KRCA - June, 2013

Change the Weather History Date:

Saturday, June 1, 2013

  Actual Average Record
Temperature  
Mean Temperature 54 °F -  
Max Temperature 63 °F 68 °F 88 °F (2017)
Min Temperature 44 °F 47 °F 42 °F (2004)
Degree Days  
Heating Degree Days 12    
Growing Degree Days 4 (Base 50)    
Moisture  
Dew Point 43 °F    
Average Humidity 79    
Maximum Humidity 100    
Minimum Humidity 41    
Precipitation  
Precipitation 0.05 in - - ()
Sea Level Pressure  
Sea Level Pressure 30.05 in    
Wind  
Wind Speed 23 mph (NNW)    
Max Wind Speed 36 mph    
Max Gust Speed 44 mph    
Visibility 9 miles    
Events Rain    
Averages and records for this station are not official NWS values.
T = Trace of Precipitation, MM = Missing Value Source: NWS Daily Summary

Daily Weather History Graph

Daily Weather History Graph

Search for Another Location

Airport or City:

Trip Planner

Search our weather history database for the weather conditions in past years. The results will help you decide how hot, cold, wet, or windy it might be!

Date:

Astronomy

Jun. 01, 2013 Rise Set
Actual Time 5:11 AM MDT 8:29 PM MDT
Civil Twilight 4:36 AM MDT 9:04 PM MDT
Nautical Twilight 3:50 AM MDT 9:51 PM MDT
Astronomical Twilight 2:53 AM MDT 10:48 PM MDT
Moon 1:22 AM MDT (6/1) 1:48 PM MDT (6/1)
Length of Visible Light 16h 28m
Length of Day
15h 17m
Last Quarter, 40% of the Moon is Illuminated
Jun 1
Last Quarter
Jun 8
New
Jun 16
First Quarter
Jun 23
Full
Jun 29
Last Quarter

Hourly Weather History & Observations

Time (MDT) Temp. Windchill Dew Point Humidity Pressure Visibility Wind Dir Wind Speed Gust Speed Precip Events Conditions
12:38 AM 46.4 °F 38.5 °F 46.4 °F 100% 29.95 in 10.0 mi NNW 21.9 mph 27.6 mph N/A Rain Light Rain
12:43 AM 46.4 °F 38.5 °F 46.4 °F 100% 29.95 in 10.0 mi NNW 21.9 mph 27.6 mph N/A Rain Light Rain
12:58 AM 47.1 °F - 45.5 °F 94% 29.98 in 7.0 mi NNW 20.7 mph 27.6 mph 0.01 in Rain Light Rain
1:03 AM 46.4 °F 38.3 °F 46.4 °F 100% 29.96 in 5.0 mi NNW 23.0 mph 26.5 mph N/A Rain Light Rain
1:13 AM 46.4 °F 38.1 °F 46.4 °F 100% 29.96 in 10.0 mi NNW 24.2 mph 32.2 mph N/A Rain Light Rain
1:23 AM 46.4 °F 38.5 °F 44.6 °F 93% 29.96 in 10.0 mi NNW 21.9 mph 34.5 mph N/A Rain Light Rain
1:28 AM 46.4 °F 37.9 °F 44.6 °F 93% 29.96 in 10.0 mi NNW 25.3 mph 34.5 mph N/A Rain Light Rain
1:33 AM 46.4 °F 38.3 °F 44.6 °F 93% 29.96 in 9.0 mi NNW 23.0 mph 33.4 mph N/A Rain Light Rain
1:38 AM 46.4 °F 38.3 °F 44.6 °F 93% 29.97 in 6.0 mi NNW 23.0 mph 32.2 mph N/A Rain Light Rain
1:43 AM 46.4 °F 37.9 °F 44.6 °F 93% 29.96 in 5.0 mi North 25.3 mph 28.8 mph N/A Rain Light Rain
1:58 AM 46.2 °F 38.3 °F 45.0 °F 95% 29.99 in 10.0 mi North 21.9 mph 28.8 mph 0.01 in Rain Light Rain
2:13 AM 46.4 °F 37.4 °F 44.6 °F 93% 29.96 in 10.0 mi NNW 28.8 mph 35.7 mph N/A Rain Light Rain
2:23 AM 46.4 °F 37.7 °F 44.6 °F 93% 29.96 in 10.0 mi NNW 26.5 mph 38.0 mph N/A   Light Drizzle
2:58 AM 45.9 °F 36.6 °F 44.6 °F 95% 29.99 in 10.0 mi NNW 28.8 mph 39.1 mph 0.01 in Rain Light Rain
3:18 AM 46.4 °F 37.4 °F 44.6 °F 93% 29.97 in 10.0 mi NNW 28.8 mph 38.0 mph N/A Rain Light Rain
3:53 AM 46.4 °F 36.9 °F 44.6 °F 93% 30.00 in 7.0 mi NNW 32.2 mph 41.4 mph N/A Rain Light Rain
3:58 AM 45.5 °F 35.2 °F 43.9 °F 94% 30.03 in 8.0 mi NNW 35.7 mph 41.4 mph 0.00 in Rain Light Rain
4:03 AM 46.4 °F 36.4 °F 44.6 °F 93% 30.00 in 9.0 mi NNW 35.7 mph 43.7 mph N/A Rain Light Rain
4:08 AM 44.6 °F 34.4 °F 44.6 °F 100% 30.01 in 8.0 mi NNW 32.2 mph 43.7 mph N/A Rain Light Rain
4:38 AM 44.6 °F 35.3 °F 42.8 °F 93% 30.02 in 10.0 mi NNW 26.5 mph 35.7 mph N/A Rain Light Rain
4:43 AM 44.6 °F 35.3 °F 42.8 °F 93% 30.02 in 9.0 mi NNW 26.5 mph 35.7 mph N/A Rain Light Rain
4:48 AM 44.6 °F 34.9 °F 42.8 °F 93% 30.02 in 7.0 mi NNW 28.8 mph 35.7 mph N/A Rain Light Rain
4:53 AM 44.6 °F 34.9 °F 42.8 °F 93% 30.02 in 7.0 mi NNW 28.8 mph 35.7 mph N/A Rain Light Rain
4:58 AM 44.6 °F 35.3 °F 42.8 °F 93% 30.05 in 9.0 mi NNW 26.5 mph 33.4 mph 0.01 in Rain Light Rain
5:03 AM 44.6 °F 34.9 °F 42.8 °F 93% 30.03 in 10.0 mi NNW 28.8 mph 38.0 mph N/A Rain Light Rain
5:20 AM 44.6 °F 35.3 °F 42.8 °F 93% 30.04 in 10.0 mi NNW 26.5 mph 36.8 mph N/A   Overcast
5:58 AM 46.0 °F 37.4 °F 41.4 °F 84% 30.08 in 10.0 mi NNW 25.3 mph 31.1 mph 0.00 in   Overcast
6:58 AM 47.5 °F - 42.6 °F 83% 30.11 in 10.0 mi NNW 19.6 mph 31.1 mph N/A   Overcast
7:58 AM 49.3 °F - 43.0 °F 79% 30.12 in 10.0 mi NNW 26.5 mph 32.2 mph N/A   Overcast
8:58 AM 51.8 °F - 42.4 °F 70% 30.14 in 10.0 mi NNW 27.6 mph 33.4 mph 0.01 in   Clear
9:58 AM 54.0 °F - 39.7 °F 59% 30.14 in 10.0 mi NNW 26.5 mph 39.1 mph N/A   Mostly Cloudy
10:58 AM 55.9 °F - 39.2 °F 53% 30.15 in 10.0 mi NNW 23.0 mph 33.4 mph N/A   Partly Cloudy
11:58 AM 57.2 °F - 40.3 °F 53% 30.17 in 10.0 mi NNW 18.4 mph 27.6 mph N/A   Partly Cloudy
12:58 PM 58.6 °F - 37.9 °F 46% 30.16 in 10.0 mi NNW 20.7 mph 27.6 mph N/A   Partly Cloudy
1:58 PM 60.4 °F - 38.5 °F 44% 30.15 in 10.0 mi NNW 20.7 mph 33.4 mph N/A   Partly Cloudy
2:58 PM 62.2 °F - 40.1 °F 44% 30.14 in 10.0 mi NW 20.7 mph 24.2 mph N/A   Scattered Clouds
3:58 PM 61.7 °F - 39.0 °F 43% 30.14 in 10.0 mi NNW 20.7 mph 25.3 mph N/A   Partly Cloudy
4:58 PM 63.0 °F - 38.8 °F 41% 30.15 in 10.0 mi North 21.9 mph 29.9 mph N/A   Clear
5:58 PM 62.4 °F - 39.4 °F 43% 30.13 in 10.0 mi North 17.3 mph 24.2 mph N/A   Clear
6:58 PM 61.2 °F - 37.0 °F 41% 30.14 in 10.0 mi North 13.8 mph - N/A   Clear
7:58 PM 58.6 °F - 39.9 °F 50% 30.15 in 10.0 mi North 8.1 mph - N/A   Clear
8:58 PM 54.9 °F - 41.5 °F 61% 30.16 in 10.0 mi North 5.8 mph - N/A   Clear
9:58 PM 53.4 °F - 41.0 °F 63% 30.17 in 10.0 mi NNE 4.6 mph - N/A   Clear
10:58 PM 49.8 °F - 37.4 °F 62% 30.16 in 10.0 mi North 2.3 mph - N/A   Clear
11:58 PM 46.2 °F 44.1 °F 38.8 °F 75% 30.17 in 10.0 mi West 4.6 mph - N/A   Clear